Weather History for Traverse City, MI

Change the Weather History Date:

Tuesday, June 11, 2013

  Actual Average Record
Temperature  
Mean Temperature 68 °F 63 °F  
Max Temperature 80 °F 74 °F 93 °F (1956)
Min Temperature 56 °F 51 °F 32 °F (1964)
Degree Days  
Heating Degree Days 0 4  
Month to date heating degree days 73 63  
Since 1 June heating degree days 73 63  
Since 1 July heating degree days 7048 7499  
Cooling Degree Days 3 2  
Month to date cooling degree days 5 16  
Year to date cooling degree days 47 36  
Since 1 June cooling degree days 5 16  
Growing Degree Days 17 (Base 50)    
Moisture  
Dew Point 58 °F    
Average Humidity 74    
Maximum Humidity 100    
Minimum Humidity 48    
Precipitation  
Precipitation 0.00 in 0.10 in 2.54 in (2010)
Month to date precipitation 0.62 1.05  
Year to date precipitation 13.00 12.60  
Sea Level Pressure  
Sea Level Pressure 29.85 in    
Wind  
Wind Speed 4 mph (North)    
Max Wind Speed 16 mph    
Max Gust Speed 21 mph    
Visibility 6 miles    
Events Fog    
T = Trace of Precipitation, MM = Missing Value Source: NWS Daily Summary

Daily Weather History Graph

Daily Weather History Graph

Search for Another Location

Airport:

Trip Planner

Search our weather history database for the weather conditions in past years. The results will help you decide how hot, cold, wet, or windy it might be!

Date:

Astronomy

Jun. 11, 2013 Rise Set
Actual Time 5:56 AM EDT 9:28 PM EDT
Civil Twilight 5:19 AM EDT 10:05 PM EDT
Nautical Twilight 4:30 AM EDT 10:53 PM EDT
Astronomical Twilight 3:27 AM EDT 11:57 PM EDT
Moon 8:44 AM EDT (6/11) 11:24 PM EDT (6/11)
Length of Visible Light 16h 45m
Length of Day
15h 31m
Waxing Crescent, 8% of the Moon is Illuminated
Jun 11
Waxing Crescent
Jun 16
First Quarter
Jun 23
Full
Jun 30
Last Quarter
Jul 8
New

Hourly Weather History & Observations

Time (EDT) Temp. Dew Point Humidity Pressure Visibility Wind Dir Wind Speed Gust Speed Precip Events Conditions
12:25 AM 57.2 °F 55.4 °F 94% 29.83 in 5.0 mi Calm Calm - N/A   Scattered Clouds
12:33 AM 57.2 °F 55.4 °F 94% 29.82 in 6.0 mi Calm Calm - N/A   Mostly Cloudy
12:53 AM 57.9 °F 55.9 °F 93% 29.82 in 6.0 mi Calm Calm - N/A   Overcast
1:41 AM 55.4 °F 53.6 °F 94% 29.82 in 6.0 mi West 4.6 mph - N/A   Scattered Clouds
1:53 AM 55.9 °F 54.0 °F 93% 29.83 in 5.0 mi West 4.6 mph - N/A   Mostly Cloudy
2:21 AM 57.2 °F 55.4 °F 94% 29.82 in 8.0 mi WNW 3.5 mph - N/A   Overcast
2:53 AM 57.0 °F 55.0 °F 93% 29.82 in 8.0 mi Calm Calm - N/A   Overcast
3:16 AM 57.2 °F 55.4 °F 94% 29.83 in 10.0 mi Calm Calm - N/A   Overcast
3:53 AM 57.9 °F 55.9 °F 93% 29.83 in 9.0 mi Calm Calm - N/A   Overcast
4:46 AM 59.0 °F 57.2 °F 94% 29.84 in 7.0 mi Calm Calm - N/A   Overcast
4:53 AM 59.0 °F 57.0 °F 93% 29.84 in 4.0 mi West 3.5 mph - N/A   Overcast
5:00 AM 57.2 °F 57.2 °F 100% 29.84 in 1.8 mi Calm Calm - N/A   Overcast
5:25 AM 57.2 °F 57.2 °F 100% 29.84 in 0.5 mi Calm Calm - N/A Fog Fog
5:33 AM 57.2 °F 57.2 °F 100% 29.84 in 0.2 mi Calm Calm - N/A Fog Fog
5:53 AM 57.9 °F 57.0 °F 97% 29.85 in 0.2 mi Calm Calm - N/A Fog Fog
6:53 AM 59.0 °F 57.9 °F 96% 29.86 in 0.1 mi Calm Calm - N/A Fog Fog
7:53 AM 57.9 °F 57.9 °F 100% 29.88 in 0.2 mi Calm Calm - N/A Fog Fog
8:53 AM 59.0 °F 57.9 °F 96% 29.88 in 0.1 mi Calm Calm - N/A Fog Fog
9:13 AM 59.0 °F 57.2 °F 94% 29.89 in 0.5 mi Calm Calm - N/A   Mist
9:25 AM 60.8 °F 57.2 °F 88% 29.89 in 1.5 mi Calm Calm - N/A   Overcast
9:35 AM 60.8 °F 59.0 °F 94% 29.90 in 3.0 mi Calm Calm - N/A   Overcast
9:53 AM 61.0 °F 59.0 °F 93% 29.89 in 3.0 mi Calm Calm - N/A   Overcast
10:07 AM 62.6 °F 59.0 °F 88% 29.88 in 6.0 mi East 3.5 mph - N/A   Overcast
10:29 AM 66.2 °F 60.8 °F 83% 29.87 in 7.0 mi East 3.5 mph - N/A   Mostly Cloudy
10:53 AM 68.0 °F 61.0 °F 78% 29.87 in 10.0 mi Variable 3.5 mph - N/A   Mostly Cloudy
11:11 AM 71.6 °F 60.8 °F 69% 29.86 in 10.0 mi Variable 4.6 mph - N/A   Mostly Cloudy
11:27 AM 71.6 °F 60.8 °F 69% 29.86 in 10.0 mi Variable 5.8 mph - N/A   Mostly Cloudy
11:53 AM 73.9 °F 61.0 °F 64% 29.84 in 10.0 mi SW 6.9 mph - N/A   Mostly Cloudy
12:53 PM 73.0 °F 61.0 °F 66% 29.84 in 10.0 mi NNE 8.1 mph - N/A   Mostly Cloudy
1:53 PM 71.1 °F 60.1 °F 68% 29.82 in 10.0 mi NNE 8.1 mph - N/A   Mostly Cloudy
2:53 PM 75.9 °F 62.1 °F 62% 29.82 in 10.0 mi ENE 3.5 mph - N/A   Mostly Cloudy
3:53 PM 73.9 °F 62.1 °F 66% 29.82 in 10.0 mi NNE 5.8 mph - N/A   Mostly Cloudy
4:53 PM 73.9 °F 61.0 °F 64% 29.82 in 10.0 mi NNE 8.1 mph - N/A   Mostly Cloudy
5:53 PM 79.0 °F 57.9 °F 48% 29.80 in 10.0 mi West 15.0 mph 20.7 mph N/A   Scattered Clouds
6:53 PM 78.1 °F 57.0 °F 48% 29.79 in 10.0 mi West 10.4 mph - N/A   Scattered Clouds
7:53 PM 63.0 °F 57.0 °F 81% 29.82 in 10.0 mi NE 10.4 mph - N/A   Mostly Cloudy
8:33 PM 57.2 °F 53.6 °F 88% 29.84 in 10.0 mi NNE 9.2 mph - N/A   Mostly Cloudy
8:42 PM 57.2 °F 55.4 °F 94% 29.84 in 0.5 mi North 9.2 mph - N/A   Mostly Cloudy
8:53 PM 57.9 °F 55.0 °F 90% 29.85 in 0.5 mi North 4.6 mph - N/A   Mostly Cloudy
8:55 PM 57.2 °F 55.4 °F 94% 29.85 in 3.0 mi North 4.6 mph - N/A   Mostly Cloudy
9:53 PM 59.0 °F 55.9 °F 90% 29.86 in 5.0 mi Calm Calm - N/A   Scattered Clouds
10:53 PM 60.1 °F 57.0 °F 90% 29.87 in 6.0 mi North 4.6 mph - N/A   Mostly Cloudy
11:53 PM 60.1 °F 55.9 °F 86% 29.88 in 8.0 mi Calm Calm - N/A   Overcast